Location: Bergnerzell
(49.1816°N, 10.2565°E)
Time: 01:52:45
(UTC+00:00)

Helios 1A Rocket - Visible Passes

Search period start: 19 November 2025 00:00
Search period end: 29 November 2025 00:00
Orbit: 443 x 456 km, 98.3° (Epoch: 18 November)

Date Brightness Start Highest point End Pass type
(mag) Time Alt. Az. Time Alt. Az. Time Alt. Az.
19 Nov 4.5 03:47:53 10° SE 03:50:43 26° ENE 03:51:11 25° NE visible
19 Nov 3.6 05:20:37 10° SSW 05:23:21 23° W 05:24:48 17° WNW visible
19 Nov 4.6 16:41:34 11° ESE 16:41:34 11° ESE 16:42:04 10° ESE visible
19 Nov 4.5 18:15:14 24° SW 18:15:14 24° SW 18:16:45 10° SSW visible
20 Nov 5.8 03:14:47 10° E 03:15:40 11° ENE 03:15:40 11° ENE visible
20 Nov 2.3 04:44:51 10° S 04:48:11 63° WSW 04:49:18 37° NW visible
20 Nov 3.7 17:39:56 29° S 17:39:56 29° S 17:41:47 10° S visible
21 Nov 3.4 04:09:55 10° SE 04:13:08 44° ENE 04:13:44 39° NE visible
21 Nov 4.3 05:44:17 10° WSW 05:46:02 14° W 05:47:22 11° WNW visible
21 Nov 4.2 17:04:34 17° SE 17:04:34 17° SE 17:05:50 10° SSE visible
21 Nov 5.4 18:38:13 14° WSW 18:38:13 14° WSW 18:38:47 10° SW visible
22 Nov 5.1 03:35:48 10° ESE 03:38:07 18° ENE 03:38:07 18° ENE visible
22 Nov 3.1 05:07:34 10° SSW 05:10:38 33° W 05:11:45 26° WNW visible
22 Nov 4.4 18:02:47 23° SSW 18:02:47 23° SSW 18:04:09 10° SSW visible
23 Nov 2.3 04:32:01 10° SSE 04:35:22 84° ENE 04:36:04 53° N visible
23 Nov 4.1 17:27:17 21° SSE 17:27:17 21° SSE 17:28:40 10° S visible
24 Nov 4.2 03:57:14 10° SE 04:00:13 30° ENE 04:00:20 30° ENE visible
24 Nov 3.8 05:30:24 10° SW 05:32:55 19° W 05:33:57 17° WNW visible
24 Nov 4.7 16:51:43 11° SE 16:51:43 11° SE 16:51:59 10° SE visible
24 Nov 5.2 18:25:21 15° SW 18:25:21 15° SW 18:26:02 10° SW visible
25 Nov 5.7 03:23:29 10° E 03:24:34 13° ENE 03:24:34 13° ENE visible
25 Nov 2.5 04:54:08 10° S 04:57:24 52° WSW 04:58:10 41° WNW visible
25 Nov 4.4 17:49:43 20° S 17:49:43 20° S 17:50:53 10° S visible
26 Nov 3.1 04:18:45 10° SSE 04:22:02 53° ENE 04:22:19 51° NE visible
26 Nov 4.4 05:53:46 10° WSW 05:55:00 12° W 05:55:56 11° WNW visible
26 Nov 4.5 17:14:01 15° SE 17:14:01 15° SE 17:14:49 10° SSE visible
27 Nov 4.9 03:44:10 10° ESE 03:46:25 21° ENE 03:46:25 21° ENE visible
27 Nov 3.3 05:16:19 10° SSW 05:19:16 29° W 05:20:02 26° WNW visible
27 Nov 5.0 18:11:53 15° SSW 18:11:53 15° SSW 18:12:34 10° SSW visible
28 Nov 2.2 04:40:19 10° SSE 04:43:40 83° WSW 04:44:04 66° NNW visible
28 Nov 4.6 17:36:03 16° SSE 17:36:03 16° SSE 17:36:54 10° S visible
